Springfield, IL

2:20 AM CDT on April 24, 2018 (GMT -0500)
Capital

Weather History for KSPI - March, 2013

Change the Weather History Date:

Tuesday, March 12, 2013

  Actual Average Record
Temperature  
Mean Temperature 35 °F 41 °F  
Max Temperature 43 °F 50 °F 80 °F (1990)
Min Temperature 27 °F 31 °F -8 °F (1948)
Degree Days  
Heating Degree Days 30 24  
Month to date heating degree days 364 319  
Since 1 July heating degree days 4273 4590  
Cooling Degree Days 0 0  
Month to date cooling degree days 0 0  
Year to date cooling degree days 0 0  
Moisture  
Dew Point 25 °F    
Average Humidity 68    
Maximum Humidity 81    
Minimum Humidity 54    
Precipitation  
Precipitation T in 0.08 in 2.18 in (2006)
Month to date precipitation 1.59 0.97  
Year to date precipitation 7.31 4.60  
Snow  
Snow T in 0.10 in 3.90 in (1980)
Month to date snowfall 1.0 1.4  
Since 1 July snowfall 14.5 19.5  
Snow Depth 0.00 in    
Sea Level Pressure  
Sea Level Pressure 30.07 in    
Wind  
Wind Speed 15 mph (West)    
Max Wind Speed 28 mph    
Max Gust Speed 37 mph    
Visibility 9 miles    
Events Snow    
T = Trace of Precipitation, MM = Missing Value Source: NWS Daily Summary

Daily Weather History Graph

Daily Weather History Graph

Search for Another Location

Airport or City:

Astronomy

Mar. 12, 2013 Rise Set
Actual Time 7:14 AM CDT 7:02 PM CDT
Civil Twilight 6:47 AM CDT 7:29 PM CDT
Nautical Twilight 6:16 AM CDT 8:01 PM CDT
Astronomical Twilight 5:44 AM CDT 8:32 PM CDT
Moon 7:21 AM CDT (3/12) 8:17 PM CDT (3/12)
Length of Visible Light 12h 42m
Length of Day
11h 48m
New Moon, 1% of the Moon is Illuminated
Mar 12
New Moon
Mar 19
First Quarter
Mar 27
Full
Apr 2
Last Quarter
Apr 10
New

Hourly Weather History & Observations

Time (CDT) Temp. Windchill Dew Point Humidity Pressure Visibility Wind Dir Wind Speed Gust Speed Precip Events Conditions
12:50 AM 32.0 °F 24.8 °F 26.6 °F 80% 29.95 in 10.0 mi West 8.1 mph - N/A   Overcast
12:52 AM 32.0 °F 25.6 °F 27.0 °F 82% 29.97 in 10.0 mi West 6.9 mph - N/A   Overcast
1:52 AM 32.0 °F 24.2 °F 26.1 °F 79% 29.99 in 10.0 mi West 9.2 mph - N/A   Overcast
2:20 AM 32.0 °F 23.6 °F 24.8 °F 75% 29.97 in 10.0 mi West 10.4 mph - N/A   Overcast
2:52 AM 32.0 °F 22.5 °F 23.0 °F 69% 29.99 in 10.0 mi WNW 12.7 mph 20.7 mph N/A   Overcast
3:30 AM 30.2 °F 20.2 °F 21.2 °F 69% 29.97 in 10.0 mi WNW 12.7 mph - N/A   Scattered Clouds
3:52 AM 30.0 °F 21.7 °F 21.9 °F 72% 29.99 in 10.0 mi West 9.2 mph - N/A   Clear
4:52 AM 28.9 °F 20.4 °F 21.9 °F 75% 29.99 in 10.0 mi West 9.2 mph - N/A   Clear
5:52 AM 28.0 °F 20.0 °F 21.9 °F 78% 30.03 in 10.0 mi West 8.1 mph - N/A   Clear
6:52 AM 27.0 °F 17.3 °F 21.9 °F 81% 30.03 in 10.0 mi West 10.4 mph - N/A   Clear
7:52 AM 28.0 °F 18.6 °F 21.9 °F 78% 30.06 in 10.0 mi West 10.4 mph - N/A   Clear
8:52 AM 30.0 °F 19.5 °F 24.1 °F 79% 30.07 in 10.0 mi West 13.8 mph - N/A   Clear
9:52 AM 32.0 °F 21.6 °F 23.0 °F 69% 30.07 in 10.0 mi West 15.0 mph - N/A   Clear
10:52 AM 35.1 °F 25.5 °F 26.1 °F 70% 30.08 in 10.0 mi WSW 15.0 mph - N/A   Clear
11:52 AM 37.9 °F 28.9 °F 28.9 °F 70% 30.08 in 10.0 mi West 16.1 mph 24.2 mph N/A   Clear
12:52 PM 39.9 °F 32.5 °F 28.0 °F 63% 30.07 in 10.0 mi WSW 12.7 mph 18.4 mph N/A   Partly Cloudy
1:52 PM 43.0 °F 34.5 °F 32.0 °F 65% 30.06 in 10.0 mi WSW 19.6 mph 24.2 mph N/A   Mostly Cloudy
2:52 PM 39.9 °F 30.8 °F 28.9 °F 65% 30.05 in 10.0 mi West 18.4 mph 26.5 mph N/A   Overcast
3:52 PM 39.0 °F 29.6 °F 30.0 °F 70% 30.06 in 10.0 mi WNW 18.4 mph 29.9 mph 0.00 in   Overcast
4:52 PM 37.9 °F 28.5 °F 28.9 °F 70% 30.07 in 10.0 mi WNW 17.3 mph 24.2 mph N/A   Overcast
5:52 PM 39.0 °F 29.6 °F 25.0 °F 57% 30.08 in 10.0 mi WNW 18.4 mph 26.5 mph N/A   Mostly Cloudy
6:52 PM 37.0 °F 26.4 °F 25.0 °F 62% 30.10 in 10.0 mi WNW 20.7 mph 31.1 mph N/A   Overcast
7:52 PM 35.1 °F 25.2 °F 24.1 °F 64% 30.12 in 10.0 mi West 16.1 mph 24.2 mph 0.00 in   Overcast
8:52 PM 33.1 °F 23.4 °F 27.0 °F 78% 30.13 in 10.0 mi West 13.8 mph - 0.00 in   Overcast
9:44 PM 30.2 °F 17.8 °F 26.6 °F 86% 30.14 in 5.0 mi NW 19.6 mph 27.6 mph 0.00 in Snow Light Snow
9:52 PM 30.0 °F 18.3 °F 27.0 °F 88% 30.16 in 1.8 mi NW 17.3 mph 28.8 mph 0.00 in Snow Light Snow
10:02 PM 30.2 °F 18.9 °F 26.6 °F 86% 30.15 in 3.0 mi WNW 16.1 mph 24.2 mph 0.00 in Snow Light Snow
10:24 PM 30.2 °F 17.1 °F 21.2 °F 69% 30.15 in 10.0 mi WNW 21.9 mph 29.9 mph 0.00 in   Overcast
10:52 PM 30.0 °F 18.7 °F 21.0 °F 69% 30.18 in 10.0 mi NW 16.1 mph 27.6 mph 0.00 in   Overcast
11:52 PM 28.9 °F 17.7 °F 17.1 °F 61% 30.19 in 10.0 mi WNW 15.0 mph 24.2 mph N/A   Overcast